Andover, NJ

12:27 PM EDT on August 20, 2017 (GMT -0400)
Andover

Weather History for K12N - October, 2011

Change the Weather History Date:

Monday, October 3, 2011

  Actual Average (KFWN) Record (KFWN)
Temperature  
Mean Temperature 50 °F -  
Max Temperature 55 °F 67 °F 82 °F (1968)
Min Temperature 46 °F 43 °F 29 °F (1966)
Degree Days  
Heating Degree Days 14    
Moisture  
Dew Point 45 °F    
Average Humidity 84    
Maximum Humidity 97    
Minimum Humidity 64    
Precipitation  
Precipitation 0.03 in - - ()
Sea Level Pressure  
Sea Level Pressure 30.02 in    
Wind  
Wind Speed 0 mph (SSE)    
Max Wind Speed 4 mph    
Max Gust Speed -    
Averages and records for this station are not official NWS values.
T = Trace of Precipitation, MM = Missing Value Source: NWS Daily Summary

Daily Weather History Graph

Daily Weather History Graph

Search for Another Location

Airport or City:

Trip Planner

Search our weather history database for the weather conditions in past years. The results will help you decide how hot, cold, wet, or windy it might be!

Date:

Astronomy

Oct. 03, 2011 Rise Set
Actual Time 6:57 AM EDT 6:38 PM EDT
Civil Twilight 6:29 AM EDT 7:05 PM EDT
Nautical Twilight 5:58 AM EDT 7:37 PM EDT
Astronomical Twilight 5:25 AM EDT 8:09 PM EDT
Moon 1:55 PM EDT (10/3) 11:36 PM EDT (10/3)
Length of Visible Light 12h 35m
Length of Day
11h 40m
Waxing Crescent, 45% of the Moon is Illuminated
Oct 3
Waxing Crescent
Oct 3
First Quarter
Oct 11
Full
Oct 19
Last Quarter
Oct 26
New

Hourly Weather History & Observations

Time (EDT) Temp. Dew Point Humidity Pressure Visibility Wind Dir Wind Speed Gust Speed Precip Events Conditions
12:54 AM 48.0 °F 46.0 °F 93% 29.91 in - Calm Calm - N/A   Unknown
1:54 AM 46.9 °F 45.0 °F 93% 29.91 in - Calm Calm - N/A   Unknown
2:54 AM 48.0 °F 45.0 °F 89% 29.92 in - SSE 3.5 mph - N/A   Unknown
3:54 AM 48.0 °F 45.0 °F 89% 29.93 in - Calm Calm - N/A   Unknown
4:54 AM 48.0 °F 45.0 °F 89% 29.95 in - Calm Calm - N/A   Unknown
5:54 AM 48.0 °F 45.0 °F 89% 29.97 in - Calm Calm - N/A   Unknown
6:54 AM 48.0 °F 44.1 °F 86% 29.99 in - Calm Calm - N/A   Unknown
7:54 AM 48.0 °F 44.1 °F 86% 30.02 in - Calm Calm - N/A   Unknown
8:54 AM 48.9 °F 44.1 °F 83% 30.03 in - Calm Calm - N/A   Unknown
9:54 AM 50.0 °F 44.1 °F 80% 30.05 in - SSE 3.5 mph - N/A   Unknown
10:54 AM 51.1 °F 43.0 °F 74% 30.06 in - Variable 3.5 mph - N/A   Unknown
11:54 AM 53.1 °F 41.0 °F 64% 30.05 in - Calm Calm - N/A   Unknown
12:54 PM 53.1 °F 42.1 °F 66% 30.05 in - Calm Calm - N/A   Unknown
2:54 PM 53.1 °F 44.1 °F 71% 30.05 in - Calm Calm - N/A   Unknown
3:54 PM 55.0 °F 44.1 °F 67% 30.04 in - Calm Calm - N/A   Unknown
4:54 PM 54.0 °F 45.0 °F 72% 30.04 in - Calm Calm - N/A   Unknown
5:54 PM 53.1 °F 46.0 °F 77% 30.05 in - Calm Calm - N/A   Unknown
6:54 PM 52.0 °F 46.0 °F 80% 30.05 in - Calm Calm - N/A   Unknown
7:54 PM 50.0 °F 46.9 °F 89% 30.06 in - Calm Calm - N/A   Unknown
8:54 PM 48.9 °F 48.0 °F 97% 30.07 in - Calm Calm - N/A   Unknown
9:54 PM 48.9 °F 48.0 °F 97% 30.07 in - Calm Calm - N/A   Unknown
10:54 PM 48.9 °F 48.0 °F 97% 30.07 in - Calm Calm - N/A   Unknown
11:54 PM 50.0 °F 48.0 °F 93% 30.07 in - Calm Calm - 0.03 in   Unknown